Time,TemperatureF,DewpointF,PressureIn,WindDirection,WindDirectionDegrees,WindSpeedMPH,WindSpeedGustMPH,Humidity,HourlyPrecipIn,Conditions,Clouds,dailyrainin,SoftwareType,DateUTC
2013-02-08 00:02:00,38.5,32.2,30.19,North,0,3.8,-999.0,78,-99.99,,,0.00,Acu-Link.com,2013-02-08 06:02:00,
2013-02-08 00:17:00,39.0,32.8,30.20,North,0,3.8,-999.0,78,-99.99,,,0.00,Acu-Link.com,2013-02-08 06:17:00,
2013-02-08 00:32:00,39.6,32.6,30.20,NNE,22,4.3,-999.0,76,-99.99,,,0.00,Acu-Link.com,2013-02-08 06:32:00,
2013-02-08 00:47:00,39.4,32.5,30.20,NNW,337,3.8,-999.0,76,-99.99,,,0.00,Acu-Link.com,2013-02-08 06:47:00,
2013-02-08 01:02:00,35.4,30.2,30.20,WSW,247,3.1,-999.0,81,-99.99,,,0.00,Acu-Link.com,2013-02-08 07:02:00,
2013-02-08 01:17:00,33.6,29.0,30.20,West,270,2.2,-999.0,83,-99.99,,,0.00,Acu-Link.com,2013-02-08 07:17:00,
2013-02-08 01:32:00,32.5,28.5,30.21,SW,225,0.0,-999.0,85,-99.99,,,0.00,Acu-Link.com,2013-02-08 07:32:00,
2013-02-08 01:48:00,32.5,29.1,30.21,West,270,2.7,-999.0,87,-99.99,,,0.00,Acu-Link.com,2013-02-08 07:48:00,
2013-02-08 02:03:00,32.7,29.3,30.21,West,270,2.7,-999.0,87,-99.99,,,0.00,Acu-Link.com,2013-02-08 08:03:00,
2013-02-08 02:18:00,32.4,28.9,30.21,WNW,292,2.2,-999.0,87,-99.99,,,0.00,Acu-Link.com,2013-02-08 08:18:00,
2013-02-08 02:33:00,31.6,28.5,30.22,West,270,2.7,-999.0,88,-99.99,,,0.00,Acu-Link.com,2013-02-08 08:33:00,
2013-02-08 02:48:00,31.5,28.3,30.22,West,270,2.7,-999.0,88,-99.99,,,0.00,Acu-Link.com,2013-02-08 08:48:00,
2013-02-08 03:03:00,30.9,28.1,30.21,West,270,2.2,-999.0,89,-99.99,,,0.00,Acu-Link.com,2013-02-08 09:03:00,
2013-02-08 03:18:00,30.6,27.7,30.21,West,270,1.6,-999.0,89,-99.99,,,0.00,Acu-Link.com,2013-02-08 09:18:00,
2013-02-08 03:33:00,30.6,28.3,30.22,WNW,292,1.6,-999.0,91,-99.99,,,0.00,Acu-Link.com,2013-02-08 09:33:00,
2013-02-08 03:48:00,30.7,28.4,30.21,West,270,2.7,-999.0,91,-99.99,,,0.00,Acu-Link.com,2013-02-08 09:48:00,
2013-02-08 04:03:00,30.7,27.9,30.22,West,270,1.6,-999.0,89,-99.99,,,0.00,Acu-Link.com,2013-02-08 10:03:00,
2013-02-08 04:18:00,30.4,27.8,30.21,West,270,0.0,-999.0,90,-99.99,,,0.00,Acu-Link.com,2013-02-08 10:18:00,
2013-02-08 04:33:00,30.9,28.3,30.22,West,270,3.1,-999.0,90,-99.99,,,0.00,Acu-Link.com,2013-02-08 10:33:00,
2013-02-08 04:48:00,30.7,27.9,30.22,West,270,3.1,-999.0,89,-99.99,,,0.00,Acu-Link.com,2013-02-08 10:48:00,
2013-02-08 05:03:00,29.5,26.9,30.22,West,270,4.3,-999.0,90,-99.99,,,0.00,Acu-Link.com,2013-02-08 11:03:00,
2013-02-08 05:19:00,30.2,27.6,30.22,WNW,292,6.7,-999.0,90,-99.99,,,0.00,Acu-Link.com,2013-02-08 11:19:00,
2013-02-08 05:34:00,31.8,28.4,30.22,NNW,337,5.8,-999.0,87,-99.99,,,0.00,Acu-Link.com,2013-02-08 11:34:00,
2013-02-08 05:49:00,32.2,28.5,30.23,NNW,337,6.7,-999.0,86,-99.99,,,0.00,Acu-Link.com,2013-02-08 11:49:00,
2013-02-08 06:04:00,31.3,27.6,30.23,NNW,337,5.8,-999.0,86,-99.99,,,0.00,Acu-Link.com,2013-02-08 12:04:00,
2013-02-08 06:19:00,30.6,27.4,30.23,NNW,337,4.3,-999.0,88,-99.99,,,0.00,Acu-Link.com,2013-02-08 12:19:00,
2013-02-08 06:34:00,29.5,26.6,30.23,NNE,22,3.8,-999.0,89,-99.99,,,0.00,Acu-Link.com,2013-02-08 12:34:00,
2013-02-08 06:49:00,28.9,26.6,30.23,NNE,22,3.8,-999.0,91,-99.99,,,0.00,Acu-Link.com,2013-02-08 12:49:00,
2013-02-08 07:04:00,29.7,27.4,30.23,North,0,4.3,-999.0,91,-99.99,,,0.00,Acu-Link.com,2013-02-08 13:04:00,
2013-02-08 07:19:00,30.0,27.4,30.24,NNW,337,3.8,-999.0,90,-99.99,,,0.00,Acu-Link.com,2013-02-08 13:19:00,
2013-02-08 07:34:00,30.0,27.4,30.25,NNW,337,2.2,-999.0,90,-99.99,,,0.00,Acu-Link.com,2013-02-08 13:34:00,
2013-02-08 07:49:00,31.6,28.5,30.25,North,0,2.7,-999.0,88,-99.99,,,0.00,Acu-Link.com,2013-02-08 13:49:00,
2013-02-08 08:04:00,33.1,29.1,30.25,NNW,337,4.7,-999.0,85,-99.99,,,0.00,Acu-Link.com,2013-02-08 14:04:00,
2013-02-08 08:20:00,34.0,29.7,30.26,NNE,22,3.1,-999.0,84,-99.99,,,0.00,Acu-Link.com,2013-02-08 14:20:00,
2013-02-08 08:35:00,35.2,30.3,30.26,NNW,337,5.1,-999.0,82,-99.99,,,0.00,Acu-Link.com,2013-02-08 14:35:00,
2013-02-08 08:50:00,39.0,32.8,30.26,WNW,292,4.3,-999.0,78,-99.99,,,0.00,Acu-Link.com,2013-02-08 14:50:00,
2013-02-08 09:05:00,39.7,32.8,30.27,NNW,337,4.7,-999.0,76,-99.99,,,0.00,Acu-Link.com,2013-02-08 15:05:00,
2013-02-08 09:20:00,40.8,33.9,30.28,North,0,3.8,-999.0,76,-99.99,,,0.00,Acu-Link.com,2013-02-08 15:20:00,
2013-02-08 09:35:00,44.4,34.9,30.27,NE,45,4.7,-999.0,69,-99.99,,,0.00,Acu-Link.com,2013-02-08 15:35:00,
2013-02-08 09:50:00,46.8,34.0,30.27,ESE,112,5.8,-999.0,61,-99.99,,,0.00,Acu-Link.com,2013-02-08 15:50:00,
2013-02-08 10:05:00,48.6,34.0,30.26,East,90,5.8,-999.0,57,-99.99,,,0.00,Acu-Link.com,2013-02-08 16:05:00,
2013-02-08 10:20:00,50.2,33.7,30.27,North,0,2.2,-999.0,53,-99.99,,,0.00,Acu-Link.com,2013-02-08 16:20:00,
2013-02-08 10:35:00,51.4,32.4,30.27,East,90,6.3,-999.0,48,-99.99,,,0.00,Acu-Link.com,2013-02-08 16:35:00,
2013-02-08 10:50:00,51.3,29.5,30.26,SE,135,4.3,-999.0,43,-99.99,,,0.00,Acu-Link.com,2013-02-08 16:50:00,
2013-02-08 11:05:00,52.7,30.3,30.26,East,90,4.3,-999.0,42,-99.99,,,0.00,Acu-Link.com,2013-02-08 17:05:00,
2013-02-08 11:21:00,54.0,30.2,30.26,ESE,112,9.4,-999.0,40,-99.99,,,0.00,Acu-Link.com,2013-02-08 17:21:00,
2013-02-08 11:36:00,54.7,30.8,30.26,SSE,157,5.8,-999.0,40,-99.99,,,0.00,Acu-Link.com,2013-02-08 17:36:00,
2013-02-08 11:51:00,54.3,30.5,30.27,SSE,157,4.7,-999.0,40,-99.99,,,0.00,Acu-Link.com,2013-02-08 17:51:00,
2013-02-08 12:06:00,55.8,28.5,30.26,SE,135,8.3,-999.0,35,-99.99,,,0.00,Acu-Link.com,2013-02-08 18:06:00,
2013-02-08 12:21:00,55.0,28.6,30.25,ESE,112,5.8,-999.0,36,-99.99,,,0.00,Acu-Link.com,2013-02-08 18:21:00,
2013-02-08 12:36:00,56.1,27.4,30.24,ESE,112,5.1,-999.0,33,-99.99,,,0.00,Acu-Link.com,2013-02-08 18:36:00,
2013-02-08 12:51:00,56.7,25.6,30.24,East,90,5.8,-999.0,30,-99.99,,,0.00,Acu-Link.com,2013-02-08 18:51:00,
2013-02-08 13:06:00,57.6,26.4,30.21,ESE,112,9.8,-999.0,30,-99.99,,,0.00,Acu-Link.com,2013-02-08 19:06:00,
2013-02-08 13:21:00,55.9,28.0,30.21,ESE,112,5.8,-999.0,34,-99.99,,,0.00,Acu-Link.com,2013-02-08 19:21:00,
2013-02-08 13:36:00,55.9,28.0,30.20,South,180,4.7,-999.0,34,-99.99,,,0.00,Acu-Link.com,2013-02-08 19:36:00,
2013-02-08 13:51:00,56.7,27.1,30.20,ESE,112,5.8,-999.0,32,-99.99,,,0.00,Acu-Link.com,2013-02-08 19:51:00,
2013-02-08 14:06:00,56.7,25.6,30.17,SSE,157,4.3,-999.0,30,-99.99,,,0.00,Acu-Link.com,2013-02-08 20:06:00,
2013-02-08 14:22:00,57.0,22.5,30.17,South,180,5.1,-999.0,26,-99.99,,,0.00,Acu-Link.com,2013-02-08 20:22:00,
2013-02-08 14:37:00,59.0,19.1,30.17,SSE,157,5.1,-999.0,21,-99.99,,,0.00,Acu-Link.com,2013-02-08 20:37:00,
2013-02-08 14:52:00,59.5,-28.9,30.17,ESE,112,7.4,-999.0,2,-99.99,,,0.00,Acu-Link.com,2013-02-08 20:52:00,
2013-02-08 15:07:00,58.6,58.4,30.16,South,180,6.3,-999.0,99,-99.99,,,0.00,Acu-Link.com,2013-02-08 21:07:00,
2013-02-08 15:22:00,59.5,59.3,30.14,SSE,157,6.3,-999.0,99,-99.99,,,0.00,Acu-Link.com,2013-02-08 21:22:00,
2013-02-08 15:37:00,59.5,59.3,30.14,ESE,112,6.7,-999.0,99,-99.99,,,0.00,Acu-Link.com,2013-02-08 21:37:00,
2013-02-08 15:52:00,59.2,58.9,30.13,SSE,157,8.3,-999.0,99,-99.99,,,0.00,Acu-Link.com,2013-02-08 21:52:00,
2013-02-08 16:07:00,59.2,58.9,30.11,South,180,8.3,-999.0,99,-99.99,,,0.00,Acu-Link.com,2013-02-08 22:07:00,
2013-02-08 16:22:00,58.6,58.4,30.11,ESE,112,8.9,-999.0,99,-99.99,,,0.00,Acu-Link.com,2013-02-08 22:22:00,
2013-02-08 16:37:00,57.6,57.3,30.11,ESE,112,9.4,-999.0,99,-99.99,,,0.00,Acu-Link.com,2013-02-08 22:37:00,
2013-02-08 16:53:00,57.9,13.4,30.09,SE,135,11.4,-999.0,17,-99.99,,,0.00,Acu-Link.com,2013-02-08 22:53:00,
2013-02-08 17:08:00,57.9,18.2,30.09,ESE,112,12.5,-999.0,21,-99.99,,,0.00,Acu-Link.com,2013-02-08 23:08:00,
2013-02-08 17:23:00,56.8,18.4,30.09,SSE,157,11.0,-999.0,22,-99.99,,,0.00,Acu-Link.com,2013-02-08 23:23:00,
2013-02-08 17:38:00,55.8,20.5,30.09,SSE,157,7.4,-999.0,25,-99.99,,,0.00,Acu-Link.com,2013-02-08 23:38:00,
2013-02-08 17:53:00,54.7,22.2,30.09,SSE,157,5.8,-999.0,28,-99.99,,,0.00,Acu-Link.com,2013-02-08 23:53:00,
2013-02-08 18:08:00,53.2,24.9,30.09,SSE,157,4.7,-999.0,33,-99.99,,,0.00,Acu-Link.com,2013-02-09 00:08:00,
2013-02-08 18:23:00,52.2,24.7,30.09,SE,135,4.7,-999.0,34,-99.99,,,0.00,Acu-Link.com,2013-02-09 00:23:00,
2013-02-08 18:38:00,51.4,24.7,30.09,SSE,157,4.7,-999.0,35,-99.99,,,0.00,Acu-Link.com,2013-02-09 00:38:00,
2013-02-08 18:53:00,50.5,25.2,30.09,SE,135,4.7,-999.0,37,-99.99,,,0.00,Acu-Link.com,2013-02-09 00:53:00,
2013-02-08 19:08:00,49.6,24.4,30.08,ESE,112,5.8,-999.0,37,-99.99,,,0.00,Acu-Link.com,2013-02-09 01:08:00,
2013-02-08 19:23:00,49.3,24.8,30.09,ESE,112,5.1,-999.0,38,-99.99,,,0.00,Acu-Link.com,2013-02-09 01:23:00,
2013-02-08 19:38:00,49.3,24.8,30.09,ESE,112,6.3,-999.0,38,-99.99,,,0.00,Acu-Link.com,2013-02-09 01:38:00,
2013-02-08 20:02:00,47.7,25.1,30.09,ESE,112,5.8,-999.0,41,-99.99,,,0.00,Acu-Link.com,2013-02-09 02:02:00,
2013-02-08 20:17:00,47.5,25.5,30.09,East,90,5.1,-999.0,42,-99.99,,,0.00,Acu-Link.com,2013-02-09 02:17:00,
2013-02-08 20:32:00,48.0,26.0,30.08,ESE,112,8.3,-999.0,42,-99.99,,,0.00,Acu-Link.com,2013-02-09 02:32:00,
2013-02-08 20:47:00,47.3,26.0,30.08,SE,135,5.8,-999.0,43,-99.99,,,0.00,Acu-Link.com,2013-02-09 02:47:00,
2013-02-08 21:02:00,46.8,26.6,30.08,SSE,157,7.4,-999.0,45,-99.99,,,0.00,Acu-Link.com,2013-02-09 03:02:00,
2013-02-08 21:17:00,46.8,27.1,30.08,ESE,112,7.4,-999.0,46,-99.99,,,0.00,Acu-Link.com,2013-02-09 03:17:00,
2013-02-08 21:33:00,45.3,27.3,30.08,SE,135,5.1,-999.0,49,-99.99,,,0.00,Acu-Link.com,2013-02-09 03:33:00,
2013-02-08 21:48:00,44.1,27.1,30.08,SE,135,8.3,-999.0,51,-99.99,,,0.00,Acu-Link.com,2013-02-09 03:48:00,
2013-02-08 22:03:00,43.9,27.9,30.08,SE,135,9.4,-999.0,53,-99.99,,,0.00,Acu-Link.com,2013-02-09 04:03:00,
2013-02-08 22:18:00,44.2,29.1,30.07,ESE,112,8.3,-999.0,55,-99.99,,,0.00,Acu-Link.com,2013-02-09 04:18:00,
2013-02-08 22:33:00,43.3,29.1,30.07,SE,135,6.7,-999.0,57,-99.99,,,0.00,Acu-Link.com,2013-02-09 04:33:00,
2013-02-08 22:48:00,43.0,29.6,30.08,ESE,112,6.3,-999.0,59,-99.99,,,0.00,Acu-Link.com,2013-02-09 04:48:00,
2013-02-08 23:03:00,42.4,30.0,30.07,ESE,112,6.7,-999.0,61,-99.99,,,0.00,Acu-Link.com,2013-02-09 05:03:00,
2013-02-08 23:18:00,41.5,29.9,30.07,ESE,112,5.8,-999.0,63,-99.99,,,0.00,Acu-Link.com,2013-02-09 05:18:00,
2013-02-08 23:33:00,41.5,29.9,30.07,ESE,112,5.8,-999.0,63,-99.99,,,0.00,Acu-Link.com,2013-02-09 05:33:00,
2013-02-08 23:48:00,41.0,30.2,30.06,ESE,112,7.4,-999.0,65,-99.99,,,0.00,Acu-Link.com,2013-02-09 05:48:00,